This demonstration page uses our WeatherBlox Daily Observations layout. Learn more.

38.88101, -77.10428

Hourly Observations for January 16, 2016

Temp ( °F °C ) Dew Point ( °F °C ) Humidity (%) Winds ( mph kmh ) Pressure ( in mb ) Visibility ( mi km ) Precip ( " mm )
12:52 am 00:52 Cloudy with Light Rain 43 6 41 5 93 93 N 10 17 29.44 997 8 12.874752 0.02 0.508
1:52 am 01:52 Cloudy with Light Rain 45 7 43 6 93 93 N 7 11 29.44 997 8 12.874752 0.001 0.001
2:52 am 02:52 Cloudy with Light Rain 45 7 43 6 93 93 N 7 11 29.47 998 8 12.874752 0.001 0.001
3:52 am 03:52 Cloudy 45 7 43 6 93 93 W 6 9 29.47 998 7 11.265408 0.001 0.001
4:52 am 04:52 Cloudy with Mist and Fog 43 6 41 5 93 93 WSW 6 9 29.5 999 4 6.437376 0 0
5:18 am 05:18 Cloudy with Mist and Fog 43 6 43 6 100 100 SW 3 6 29.5 999 6 9.656064 0 0
5:52 am 05:52 Cloudy 45 7 41 5 87 87 WSW 7 11 29.53 1000 8 12.874752 0 0
5:58 am 05:58 Cloudy 45 7 41 5 87 87 WSW 8 13 29.53 1000 7 11.265408 0 0
6:12 am 06:12 Cloudy 45 7 41 5 87 87 WSW 7 11 29.53 1000 7 11.265408 0 0
6:48 am 06:48 Mostly Cloudy with Mist and Fog 43 6 41 5 93 93 SW 5 7 29.56 1001 6 9.656064 0 0
6:52 am 06:52 Mostly Cloudy with Mist and Fog 43 6 41 5 93 93 SSW 6 9 29.56 1001 5 8.04672 0 0
7:52 am 07:52 Cloudy with Mist and Fog 43 6 41 5 93 93 WSW 6 9 29.59 1002 4 6.437376 0 0
8:20 am 08:20 Cloudy with Mist and Fog 43 6 41 5 93 93 S 3 6 29.56 1001 2 3.218688 0 0
8:25 am 08:25 Cloudy with Mist and Fog 43 6 41 5 93 93 S 6 9 29.56 1001 1.75 2.816352 0 0
8:36 am 08:36 Cloudy with Fog 43 6 41 5 93 93 S 9 15 29.59 1002 0.5 0.804672 0 0
8:52 am 08:52 Cloudy with Mist and Fog 43 6 43 6 100 100 S 8 13 29.59 1002 1.25 2.01168 0 0
9:08 am 09:08 Cloudy with Mist and Fog 43 6 43 6 100 100 SSW 9 15 29.62 1003 2 3.218688 0 0
9:14 am 09:14 Cloudy with Mist and Fog 43 6 43 6 100 100 SSW 9 15 29.62 1003 3 4.828032 0 0
9:34 am 09:34 Cloudy 45 7 43 6 93 93 SW 9 15 29.62 1003 9 14.484096 0 0
9:49 am 09:49 Cloudy 45 7 43 6 93 93 SSW 8 13 29.62 1003 8 12.874752 0 0
9:52 am 09:52 Cloudy 45 7 43 6 93 93 SSW 9 15 29.65 1004 7 11.265408 0 0
10:52 am 10:52 Cloudy with Mist and Fog 43 6 41 5 93 93 S 13 20 29.65 1004 4 6.437376 0 0
11:52 am 11:52 Mostly Cloudy 45 7 43 6 93 93 S 9 15 29.65 1004 10 16.09344 0 0
11:59 am 11:59 Mostly Cloudy 45 7 43 6 93 93 SSE 8 13 29.65 1004 10 16.09344 0 0
12:01 pm 12:01 Mostly Cloudy 45 7 43 6 93 93 SSE 7 11 29.65 1004 10 16.09344 0 0
12:52 pm 12:52 Mostly Cloudy 48 9 43 6 82 82 SSE 5 7 29.62 1003 10 16.09344 0 0
1:52 pm 13:52 Cloudy 48 9 45 7 87 87 Calm 29.65 1004 10 16.09344 0 0
2:52 pm 14:52 Cloudy 52 11 37 3 58 58 NW 13 20 29.65 1004 10 16.09344 0 0
3:22 pm 15:22 Cloudy 52 11 36 2 54 54 NW 12 19 29.68 1005 10 16.09344 0 0
3:52 pm 15:52 Cloudy 52 11 36 2 54 54 NW 15 24 29.71 1006 10 16.09344 0 0
4:52 pm 16:52 Mostly Cloudy 48 9 34 1 58 58 NW 15 24 29.74 1007 10 16.09344 0 0
5:52 pm 17:52 Mostly Cloudy 46 8 30 -1 53 53 NW 17 28 29.77 1008 10 16.09344 0 0
6:52 pm 18:52 Partly Cloudy 43 6 30 -1 61 61 NNW 13 20 29.83 1010 10 16.09344 0 0
7:52 pm 19:52 Mostly Cloudy 43 6 28 -2 57 57 NW 14 22 29.85 1011 10 16.09344 0 0
8:52 pm 20:52 Mostly Cloudy 43 6 28 -2 57 57 NNW 12 19 29.85 1011 10 16.09344 0 0
9:52 pm 21:52 Mostly Cloudy 41 5 28 -2 61 61 NNW 9 15 29.85 1011 10 16.09344 0 0
10:52 pm 22:52 Partly Cloudy 39 4 28 -2 65 65 NW 8 13 29.88 1012 10 16.09344 0 0
11:52 pm 23:52 Mostly Clear 37 3 28 -2 70 70 NNW 7 11 29.88 1012 10 16.09344 0 0

Powered by AerisWeather